Content
SEND FEEDBACK

Daily
Averages
Monthly
Summary
Mexico

CANCUN, QUINTANA ROO


Home > North America > Mexico > Quintana Roo
Elevation: 9 meters     Latitude: 21 09N     Longitude: 086 49W

WEATHER
 
SELECT A DAY
Number of Records: 166,347;   Date Range: 1/1/95 - 10/20/14
 
SHARE

PRINT THIS DATA

[ ← Previous Day ]
WEATHER ALMANAC - 23 APRIL, 2013
[ Next Day → ]
[ °F ]   °C
Weather ElementAverageHighLow
Temperature26.2 °C30 °C (12:44 pm)21 °C (4:42 am)
Dewpoint22.1 °C23 °C (7:43 am)20 °C (4:42 am)
Humidity78.9 %94 % (1:43 am)62 % (12:44 pm)
Barometer1014.6 hPa1016.3 hPa (9:42 am)1013.2 hPa (4:42 pm)
Wind Speed10.8 km/h24.1 km/h (2:40 pm)
Weather ElementAverage
Visibility10.6 km
Wind DirectionESE (96.1 °)

Weather ElementTotal
Precipitation---
Cooling Degree Days7.2 (Base 18.3)
Growing Degree Days15.5 (Base 10)
Averaged from 23 records on 23 April, 2013
WEATHER CONDITIONS BREAKOUT
WIND DIRECTION BREAKOUT
WEATHER BY HOUR - 23 APRIL, 2013
[ °F ]   °C
Local TimeTemperatureDewpointHumidityBarometerVisibilityWind DirectionWind SpeedGust SpeedPrecipitationEventsConditions
1:43 AM22 °C21 °C94 %1014.6 hPa9.7 kmCalmPartly Cloudy
2:42 AM22 °C21 °C94 %1014.2 hPa9.7 kmCalmPartly Cloudy
3:42 AM22 °C21 °C94 %1013.9 hPa9.7 kmCalmPartly Cloudy
4:42 AM21 °C20 °C94 %1013.9 hPa9.7 kmCalmPartly Cloudy
5:45 AM21 °C20 °C94 %1014.2 hPa9.7 kmNorth (360°)5.6 km/hScattered Clouds
6:41 AM22 °C21 °C94 %1014.2 hPa11.3 kmCalmScattered Clouds
7:43 AM24 °C23 °C94 %1015.2 hPa4.8 kmCalmSmoke
8:43 AM27 °C23 °C79 %1015.9 hPa11.3 kmESE (120°)9.3 km/hMostly Cloudy
9:42 AM29 °C23 °C70 %1016.3 hPa11.3 kmESE (120°)11.1 km/hMostly Cloudy
10:43 AM29 °C23 °C70 %1016.3 hPa11.3 kmESE (110°)20.4 km/hMostly Cloudy
11:43 AM29 °C22 °C66 %1015.9 hPa11.3 kmESE (120°)16.7 km/hMostly Cloudy
12:44 PM30 °C22 °C62 %1015.6 hPa11.3 kmEast (100°)18.5 km/hScattered Clouds
1:45 PM30 °C22 °C62 %1014.6 hPa11.3 kmSE (130°)22.2 km/hScattered Clouds
2:40 PM30 °C22 °C62 %1013.9 hPa11.3 kmSE (140°)24.1 km/hScattered Clouds
3:53 PM29 °C22 °C66 %1013.5 hPa11.3 kmESE (120°)14.8 km/hScattered Clouds
4:42 PM29 °C23 °C70 %1013.2 hPa11.3 kmESE (120°)18.5 km/hMostly Cloudy
5:52 PM28 °C22 °C70 %1013.2 hPa11.3 kmESE (120°)16.7 km/hMostly Cloudy
6:44 PM28 °C23 °C74 %1013.5 hPa11.3 kmESE (120°)13 km/hScattered Clouds
7:41 PM27 °C23 °C79 %1013.5 hPa11.3 kmEast (90°)11.1 km/hScattered Clouds
8:42 PM26 °C23 °C83 %1014.6 hPa11.3 kmESE (110°)11.1 km/hMostly Cloudy
9:48 PM26 °C23 °C83 %1013.9 hPa11.3 kmESE (120°)13 km/hMostly Cloudy
10:47 PM26 °C23 °C83 %1015.2 hPa11.3 kmESE (120°)9.3 km/hMostly Cloudy
11:46 PM26 °C22 °C78 %1015.2 hPa11.3 kmEast (90°)11.1 km/hScattered Clouds
Hourly data recorded from MMUN, located 0 kilometers away from Cancun, Quintana Roo







STORIES FROM OUR PARTNERS